Home > Weather > Strathcona County > Past weeks

Flag for Canada Past Weather in Strathcona County, Alberta, Canada — Yesterday and Last 2 Weeks

Now
74 °F

Mild.


Feels Like: 77 °F
Forecast: 51 / 73 °F
Wind: 12 mph from Northwest

Location: Edmonton Municipal

Current Time: Jul 24, 2016 at 8:32:07 PM

Latest Report: Jul 24, 2016 at 8:00 PM


Visibility: N/A

Pressure: 29.87 "Hg (27.47 "Hg at 728m altitude)

Humidity: 47%

Dew Point: 52 °F

Location of Strathcona CountyLocation

Past Weather in Strathcona County — Graph

°F

Strathcona County Temperature Yesterday

Maximum temperature yesterday: 73 °F (at 3:00 PM)
Minimum temperature yesterday: 62 °F (at 4:00 AM)
Average temperature yesterday: 67 °F

High & Low Weather Summary for the Past Weeks

 TemperatureHumidityPressure
High83 °F (Jul 24, 3:00 PM)98% (Jul 10, 3:00 PM)30.19 "Hg (Jul 10, 3:00 PM)
Low54 °F (Jul 15, 5:00 AM)27% (Jul 24, 5:00 PM)29.72 "Hg (Jul 19, 8:00 PM)
Average66 °F66%29.92 "Hg
* Reported Jul 9 7:00 PM — Jul 24 7:00 PM, Strathcona County, Weather by CustomWeather, © 2016

Note: Actual official high and low records may vary slightly from our data, if they occured in-between our weather recording intervals... More about our weather records

Advertising

Strathcona County Weather History for the Previous 24 Hours

Scroll right to see more
 ConditionsComfort  
Time TempWeatherWind HumidityBarometerVisibility
7:00 PM
Sun, Jul 24
78 °FPleasantly warm.10 mph31%29.85 "HgN/A
6:00 PM81 °FPleasantly warm.12 mph28%29.85 "HgN/A
5:00 PM82 °FPleasantly warm.12 mph27%29.85 "HgN/A
4:00 PM82 °FPleasantly warm.14 mph29%29.84 "HgN/A
3:00 PM83 °FPleasantly warm.12 mph30%29.85 "HgN/A
2:00 PM81 °FPleasantly warm.15 mph29%29.86 "HgN/A
1:00 PM78 °FPleasantly warm.14 mph32%29.88 "HgN/A
12:00 PM78 °FPleasantly warm.12 mph34%29.89 "HgN/A
11:00 AM75 °FMild.9 mph39%29.91 "HgN/A
10:00 AM71 °FMild.8 mph52%29.92 "HgN/A
9:00 AM65 °FMild.6 mph68%29.93 "HgN/A
8:00 AM63 °FMild.3 mph74%29.94 "HgN/A
7:00 AM58 °FCool.3 mph84%29.95 "HgN/A
6:00 AM55 °FCool.2 mph88%29.95 "HgN/A
5:00 AM56 °FCool.3 mph87%29.95 "HgN/A
4:00 AM57 °FCool.2 mph84%29.96 "HgN/A
3:00 AM57 °FCool.2 mph81%29.96 "HgN/A
2:00 AM58 °FCool.2 mph79%29.97 "HgN/A
1:00 AM61 °FCool.2 mph68%29.96 "HgN/A
12:00 AM62 °FCool.1 mph64%29.95 "HgN/A
11:00 PM
Sat, Jul 23
64 °FMild.1 mph59%29.94 "HgN/A
10:00 PM66 °FMild.2 mph51%29.93 "HgN/A
9:00 PM69 °FMild.6 mph46%29.91 "HgN/A
8:00 PM69 °FMild.8 mph43%29.90 "HgN/A
Weather by CustomWeather, © 2016

See weather overviewHow to use our weather pages